ARIANE 6 R/B, 60239

Orbit data source: Space-Track

ARIANE 6 R/B, 60239 is space debris in LEO originally from a launch on Tue, 09 Jul 2024 UTC via an ARIANE 62 launch vehicle from the French Guiana (FRGUI). Debris objects in space refer to the collection of defunct objects orbiting the Earth. Examples of debris include non-operational satellites, rocket bodies, and fragments generated from explosions, collisions, or faulty payload assembly.

Loading next visibility...
Identifier
60239, 2024-128E
Orbit
LEO
Country
Flag of FRFR
Related business
Manufacturer
ArianeGroup
Mission
Spacecraft
Bus & Motor
ARI6DP, Unknown motor
Mass
~7,711 kg wet, 1,600 kg dry
Launch date (UTC)
2024-07-09 (2 years ago)
Launch vehicle
ARIANE 62
Launch site
French Guiana (FRGUI)
Object type
Payload
Rocket body
Debris
Shape & HBR
Cyl + Trunc Cone, 7.2 m
Radar Cross Section
72.787 m², Large (>1 m²)

Expand to show TLE details & history
Last TLE update: 14 hours ago

TLE from 14 hours ago
0 ARIANE 6 R/B
1 60239U 24128E   26264.71186425  .00000542  00000-0  58622-4 0  9999
2 60239  62.0105 256.2811 0029529 159.2750 200.9546 15.00608673120518
Epoch: 2026-09-21T17:05Z
TLE epoch observation values (Epoch: 2026-09-21T17:05:05.071Z)
Latitude
0.00007°
Longitude
-0.57775°
Altitude
585.945 km
Speed
7.558 km/s
True Right ascension
17h 05m 07s
True Declination
0° 00' 00"
Sunlit
Object was in daylight at epoch
Visualization orbit readout
Latitude
Unknown
Longitude
Unknown
Altitude
Unknown
Speed
Unknown
Apparent Right ascension
Unknown
Apparent Declination
Unknown
Sunlit
N/A
Visualization observer readout
Local Sidereal Time
00:04:21
Azimuth
Unknown
Elevation
Unknown
Doppler factor
Unknown
Orbital elements
Apogee altitude
584.446 km
Perigee altitude
543.447 km
Semi-major axis
6,942.084 km
Eccentricity
0.00295
Inclination
62.0105°
RAAN
256.2811°
Arg. of periapsis
159.275°
True anomaly
200.834°
Mean anomaly
200.9546°
Eccentric anomaly
200.89426°
Mean motion
3.75239 °/min
Orbital period
95.94 mins
BSTAR
0.000058622
Loading maneuver chart data...
Computing Atmospheric mass density...
Loading historical data...
Loading historical data...
Loading historical data...
Loading historical data...
Loading historical data...
Loading historical data...
Loading historical data...

Documentation

Showing up to 5 results
|